Location: Poughquag
(41.6090°N, 73.6820°W)
Time: 03:41:24
(UTC-04:00)

Transit 2A Rocket - Pass Details

Date: 05 June 2020
Orbit: 584 x 919 km, 66.7° (Epoch: 06 July)

Event Time Altitude Azimuth Distance (km) Brightness Sun altitude
Rises 22:58:56 0° 248° (WSW) 3,118 8.2 -20.4°
Reaches altitude 10° 23:01:37 10° 262° (W) 2,261 7.7 -20.7°
Maximum altitude 23:05:49 24° 316° (NW) 1,591 7.4 -21.0°
Drops below altitude 10° 23:10:20 10° 9° (N) 2,451 8.4 -21.4°
Sets 23:13:23 0° 23° (NNE) 3,444 9.0 -21.6°
